Grayling, MI

2:11 AM EST on January 23, 2018 (GMT -0500)
Grayling

Weather History for KGOV - April, 2013

Change the Weather History Date:

Tuesday, April 2, 2013

  Actual Average (KHTL) Record (KHTL)
Temperature  
Mean Temperature 24 °F -  
Max Temperature 33 °F 45 °F 81 °F (2010)
Min Temperature 16 °F 27 °F 2 °F (1924)
Degree Days  
Heating Degree Days 40    
Moisture  
Dew Point 15 °F    
Average Humidity 69    
Maximum Humidity 94    
Minimum Humidity 45    
Precipitation  
Precipitation 0.00 in - - ()
Sea Level Pressure  
Sea Level Pressure 30.09 in    
Wind  
Wind Speed 7 mph (West)    
Max Wind Speed 18 mph    
Max Gust Speed 28 mph    
Visibility 9 miles    
Events Snow    
Averages and records for this station are not official NWS values.
T = Trace of Precipitation, MM = Missing Value Source: NWS Daily Summary

Daily Weather History Graph

Daily Weather History Graph

Search for Another Location

Airport or City:

Trip Planner

Search our weather history database for the weather conditions in past years. The results will help you decide how hot, cold, wet, or windy it might be!

Date:

Astronomy

Apr. 02, 2013 Rise Set
Actual Time 7:17 AM EDT 8:08 PM EDT
Civil Twilight 6:47 AM EDT 8:37 PM EDT
Nautical Twilight 6:12 AM EDT 9:12 PM EDT
Astronomical Twilight 5:36 AM EDT 9:49 PM EDT
Moon 2:22 AM EDT (4/2) 11:57 AM EDT (4/2)
Length of Visible Light 13h 49m
Length of Day
12h 50m
Waning Gibbous, 56% of the Moon is Illuminated
Apr 2
Waning Gibbous
Apr 3
Last Quarter
Apr 10
New
Apr 18
First Quarter
Apr 25
Full

Hourly Weather History & Observations

Time (EDT) Temp. Windchill Dew Point Humidity Pressure Visibility Wind Dir Wind Speed Gust Speed Precip Events Conditions
12:14 AM 18.5 °F 13.3 °F 14.0 °F 83% 30.03 in 10.0 mi WSW 3.5 mph - N/A   Scattered Clouds
12:35 AM 17.6 °F 10.7 °F 13.6 °F 84% 30.03 in 10.0 mi WSW 4.6 mph - N/A   Scattered Clouds
12:55 AM 17.8 °F 10.9 °F 14.4 °F 86% 30.03 in 10.0 mi WSW 4.6 mph - N/A   Clear
1:14 AM 17.2 °F 10.2 °F 14.7 °F 90% 30.03 in 10.0 mi WSW 4.6 mph - N/A   Clear
1:35 AM 16.9 °F 8.5 °F 14.9 °F 92% 30.03 in 10.0 mi WSW 5.8 mph - N/A   Clear
1:55 AM 16.9 °F 9.8 °F 15.3 °F 93% 30.03 in 10.0 mi WSW 4.6 mph - N/A   Clear
2:14 AM 16.7 °F 8.3 °F 15.1 °F 93% 30.03 in 10.0 mi WSW 5.8 mph - N/A   Clear
2:35 AM 17.2 °F 7.8 °F 15.8 °F 94% 30.02 in 10.0 mi WSW 6.9 mph - N/A   Clear
2:55 AM 18.0 °F 9.8 °F 16.5 °F 94% 30.02 in 10.0 mi WSW 5.8 mph - N/A   Clear
3:15 AM 18.5 °F 10.4 °F 16.5 °F 92% 30.02 in 10.0 mi WSW 5.8 mph - N/A   Scattered Clouds
3:35 AM 18.5 °F 10.4 °F 15.8 °F 89% 30.01 in 10.0 mi WSW 5.8 mph - N/A   Scattered Clouds
3:54 AM 18.5 °F 10.4 °F 15.4 °F 88% 30.01 in 10.0 mi WSW 5.8 mph - N/A   Mostly Cloudy
4:15 AM 18.5 °F 10.4 °F 15.8 °F 89% 30.01 in 4.0 mi WSW 5.8 mph - N/A Snow Light Snow
4:35 AM 18.5 °F 11.7 °F 15.8 °F 89% 30.01 in 7.0 mi West 4.6 mph - N/A Snow Light Snow
4:54 AM 18.5 °F 11.7 °F 16.5 °F 92% 30.01 in 1.2 mi SW 4.6 mph - N/A Snow Light Snow
5:15 AM 18.5 °F 10.4 °F 15.8 °F 89% 30.01 in 2.0 mi SW 5.8 mph - N/A Snow Light Snow
5:35 AM 18.5 °F 11.7 °F 15.8 °F 89% 30.01 in 2.5 mi WSW 4.6 mph - N/A Snow Light Snow
5:55 AM 17.8 °F 12.5 °F 15.4 °F 91% 30.02 in 10.0 mi WSW 3.5 mph - N/A   Mostly Cloudy
6:15 AM 18.0 °F 9.8 °F 15.4 °F 90% 30.02 in 10.0 mi WSW 5.8 mph - N/A   Mostly Cloudy
6:35 AM 18.5 °F 10.4 °F 16.5 °F 92% 30.03 in 7.0 mi WSW 5.8 mph - N/A   Mostly Cloudy
6:55 AM 18.5 °F 11.7 °F 16.9 °F 93% 30.03 in 10.0 mi WSW 4.6 mph - N/A   Scattered Clouds
7:15 AM 18.5 °F 11.7 °F 16.7 °F 93% 30.04 in 10.0 mi WSW 4.6 mph - N/A   Scattered Clouds
7:35 AM 18.5 °F 11.7 °F 16.7 °F 93% 30.04 in 10.0 mi WSW 4.6 mph - N/A   Mostly Cloudy
7:55 AM 18.7 °F 13.5 °F 16.7 °F 92% 30.05 in 3.0 mi WSW 3.5 mph - N/A Snow Light Snow
8:15 AM 18.5 °F 13.3 °F 16.2 °F 91% 30.06 in 5.0 mi West 3.5 mph - N/A Snow Light Snow
8:34 AM 19.8 °F 11.9 °F 17.1 °F 89% 30.06 in 2.5 mi WSW 5.8 mph - N/A Snow Light Snow
8:55 AM 21.4 °F 13.8 °F 18.3 °F 88% 30.07 in 10.0 mi WSW 5.8 mph - N/A   Mostly Cloudy
9:15 AM 22.8 °F 15.5 °F 18.7 °F 84% 30.07 in 10.0 mi SW 5.8 mph - N/A   Scattered Clouds
9:34 AM 24.8 °F 17.9 °F 20.3 °F 83% 30.07 in 10.0 mi West 5.8 mph - N/A   Scattered Clouds
9:55 AM 26.1 °F 18.4 °F 19.9 °F 78% 30.08 in 4.0 mi NW 6.9 mph - N/A Snow Light Snow
10:34 AM 28.4 °F 16.6 °F 18.9 °F 67% 30.08 in 10.0 mi WNW 16.1 mph 20.7 mph N/A   Mostly Cloudy
10:55 AM 28.0 °F 20.0 °F 21.0 °F 75% 30.09 in 2.5 mi West 8.1 mph 13.8 mph N/A Snow Light Snow
11:15 AM 28.8 °F 20.2 °F 15.6 °F 58% 30.08 in 10.0 mi WNW 9.2 mph 19.6 mph N/A   Mostly Cloudy
11:34 AM 28.4 °F 17.5 °F 16.9 °F 62% 30.09 in 10.0 mi West 13.8 mph 18.4 mph N/A   Overcast
11:55 AM 28.4 °F 17.5 °F 13.6 °F 54% 30.09 in 10.0 mi West 13.8 mph 21.9 mph N/A   Mostly Cloudy
12:15 PM 28.6 °F 16.0 °F 15.8 °F 59% 30.10 in 10.0 mi WNW 18.4 mph 23.0 mph N/A   Overcast
12:34 PM 28.9 °F 18.2 °F 15.4 °F 57% 30.10 in 10.0 mi WNW 13.8 mph 25.3 mph N/A   Overcast
12:55 PM 28.6 °F 17.7 °F 12.4 °F 51% 30.10 in 10.0 mi WNW 13.8 mph 23.0 mph N/A   Mostly Cloudy
1:15 PM 30.4 °F 18.7 °F 14.7 °F 52% 30.10 in 10.0 mi WNW 17.3 mph 25.3 mph N/A   Mostly Cloudy
1:35 PM 30.6 °F 19.4 °F 15.3 °F 53% 30.09 in 10.0 mi West 16.1 mph 21.9 mph N/A   Mostly Cloudy
1:55 PM 31.1 °F 19.3 °F 13.3 °F 48% 30.09 in 10.0 mi NW 18.4 mph 24.2 mph N/A   Mostly Cloudy
2:15 PM 31.1 °F 20.1 °F 12.6 °F 46% 30.10 in 10.0 mi WNW 16.1 mph 27.6 mph N/A   Mostly Cloudy
2:35 PM 33.3 °F 24.6 °F 13.8 °F 45% 30.10 in 10.0 mi WNW 11.5 mph 24.2 mph N/A   Scattered Clouds
2:55 PM 33.3 °F 23.7 °F 14.9 °F 47% 30.10 in 10.0 mi West 13.8 mph 24.2 mph N/A   Mostly Cloudy
3:15 PM 33.1 °F 23.4 °F 15.1 °F 48% 30.10 in 10.0 mi WNW 13.8 mph 23.0 mph N/A   Overcast
3:35 PM 33.3 °F 22.8 °F 14.4 °F 46% 30.10 in 10.0 mi WNW 16.1 mph 26.5 mph N/A   Overcast
3:55 PM 30.9 °F 20.2 °F 13.6 °F 49% 30.11 in 10.0 mi West 15.0 mph 25.3 mph N/A   Mostly Cloudy
4:14 PM 33.3 °F 22.8 °F 14.0 °F 45% 30.11 in 10.0 mi WNW 16.1 mph 21.9 mph N/A   Overcast
4:35 PM 31.1 °F 20.5 °F 12.2 °F 46% 30.12 in 10.0 mi WNW 15.0 mph 25.3 mph N/A   Mostly Cloudy
4:55 PM 31.1 °F 20.9 °F 13.5 °F 48% 30.12 in 10.0 mi WNW 13.8 mph 23.0 mph N/A   Overcast
5:14 PM 28.6 °F 16.8 °F 12.6 °F 51% 30.13 in 10.0 mi NW 16.1 mph 26.5 mph N/A   Mostly Cloudy
5:35 PM 30.2 °F 18.9 °F 13.1 °F 49% 30.14 in 10.0 mi WNW 16.1 mph 26.5 mph N/A   Mostly Cloudy
5:48 PM 30.7 °F 19.6 °F 14.5 °F 51% 30.14 in 10.0 mi NW 16.1 mph 20.7 mph N/A   Scattered Clouds
6:20 PM 28.6 °F 17.7 °F 13.1 °F 52% 30.15 in 10.0 mi NW 13.8 mph 19.6 mph N/A   Scattered Clouds
6:35 PM 28.4 °F 18.5 °F 12.0 °F 50% 30.15 in 10.0 mi NW 11.5 mph 20.7 mph N/A   Scattered Clouds
6:55 PM 28.6 °F 18.7 °F 11.8 °F 50% 30.15 in 10.0 mi NW 11.5 mph 18.4 mph N/A   Scattered Clouds
7:14 PM 29.8 °F 20.3 °F 11.5 °F 46% 30.15 in 10.0 mi NW 11.5 mph 18.4 mph N/A   Scattered Clouds
7:35 PM 28.4 °F 19.7 °F 10.4 °F 47% 30.15 in 10.0 mi WNW 9.2 mph 18.4 mph N/A   Clear
7:55 PM 28.4 °F 18.5 °F 10.8 °F 48% 30.16 in 10.0 mi WNW 11.5 mph 18.4 mph N/A   Clear
8:14 PM 28.4 °F 19.7 °F 11.3 °F 49% 30.16 in 10.0 mi WNW 9.2 mph - N/A   Clear
8:35 PM 28.4 °F 22.2 °F 12.7 °F 52% 30.16 in 10.0 mi NW 5.8 mph - N/A   Clear
8:55 PM 26.1 °F 17.6 °F 11.1 °F 53% 30.16 in 10.0 mi NW 8.1 mph - N/A   Clear
9:14 PM 26.1 °F 19.4 °F 11.8 °F 55% 30.17 in 10.0 mi WNW 5.8 mph - N/A   Clear
9:35 PM 25.7 °F 19.0 °F 12.9 °F 58% 30.18 in 10.0 mi NW 5.8 mph - N/A   Clear
9:55 PM 25.3 °F 17.6 °F 13.1 °F 60% 30.19 in 10.0 mi WNW 6.9 mph - N/A   Clear
10:15 PM 24.4 °F 16.5 °F 12.9 °F 62% 30.19 in 10.0 mi NW 6.9 mph - N/A   Clear
10:35 PM 23.2 °F 17.2 °F 12.7 °F 64% 30.20 in 10.0 mi NW 4.6 mph - N/A   Clear
10:54 PM 23.4 °F 16.2 °F 12.9 °F 64% 30.20 in 10.0 mi NW 5.8 mph - N/A   Clear
11:15 PM 23.2 °F 15.0 °F 12.9 °F 65% 30.20 in 10.0 mi NW 6.9 mph - N/A   Clear
11:35 PM 21.9 °F 14.5 °F 11.7 °F 65% 30.21 in 10.0 mi WNW 5.8 mph - N/A   Clear
11:54 PM 21.9 °F 15.7 °F 11.3 °F 64% 30.21 in 10.0 mi WNW 4.6 mph - N/A   Clear